Home > Weather > Kaohsiung > Past weeks

Flag for Taiwan Past Weather in Kaohsiung, Taiwan — Yesterday and Last 2 Weeks

Now
91 °F

Scattered clouds.


Feels Like: 103 °F
Forecast: 81 / 90 °F
Wind: 14 mph from South

Location: Kaohsiung International Airport

Current Time: Jun 30, 2016 at 6:31:21 PM

Latest Report: Jun 30, 2016 at 5:30 PM


Visibility: N/A

Pressure: 29.80 "Hg

Humidity: 59%

Dew Point: 75 °F

Location of KaohsiungLocation

Past Weather in Kaohsiung — Graph

°F

Kaohsiung Temperature Yesterday

Maximum temperature yesterday: 93 °F (at 12:30 PM)
Minimum temperature yesterday: 86 °F (at 8:00 PM)
Average temperature yesterday: 89 °F

High & Low Weather Summary for the Past Weeks

 TemperatureHumidityPressure
High95 °F (Jun 27, 4:30 PM)100% (Jun 16, 4:00 AM)29.98 "Hg (Jun 16, 4:00 AM)
Low77 °F (Jun 21, 5:00 AM)53% (Jun 27, 4:30 PM)29.71 "Hg (Jun 27, 4:30 PM)
Average87 °F74%29.83 "Hg
* Reported Jun 15 5:00 PM — Jun 30 5:30 PM, Kaohsiung, Weather by CustomWeather, © 2016

Note: Actual official high and low records may vary slightly from our data, if they occured in-between our weather recording intervals... More about our weather records

Advertising

Kaohsiung Weather History for the Previous 24 Hours

Scroll right to see more
 ConditionsComfort  
Time TempWeatherWind HumidityBarometerVisibility
5:30 PM
Thu, Jun 30
91 °FScattered clouds.14 mph59%29.80 "HgN/A
5:00 PM91 °FScattered clouds.18 mph59%29.80 "HgN/A
4:30 PM91 °FScattered clouds.16 mph63%29.80 "HgN/A
4:00 PM91 °FScattered clouds.17 mph63%29.83 "HgN/A
3:30 PM91 °FScattered clouds.16 mph67%29.83 "HgN/A
3:00 PM91 °FScattered clouds.13 mph67%29.83 "HgN/A
2:30 PM91 °FScattered clouds.13 mph67%29.86 "HgN/A
2:00 PM91 °FScattered clouds.12 mph63%29.86 "HgN/A
1:30 PM91 °FScattered clouds.14 mph67%29.86 "HgN/A
1:00 PM91 °FPassing clouds.14 mph67%29.86 "HgN/A
12:30 PM93 °FScattered clouds.8 mph63%29.89 "HgN/A
12:00 PM93 °FScattered clouds.8 mph59%29.89 "HgN/A
11:30 AM91 °FScattered clouds.14 mph59%29.89 "HgN/A
11:00 AM90 °FScattered clouds.10 mph63%29.89 "HgN/A
10:30 AM91 °FScattered clouds.8 mph63%29.89 "HgN/A
10:00 AM90 °FPassing clouds.7 mph67%29.89 "HgN/A
9:30 AM90 °FPartly sunny.7 mph63%29.89 "HgN/A
9:00 AM90 °FPartly sunny.2 mph63%29.92 "HgN/A
8:30 AM90 °FPartly sunny.3 mph63%29.92 "HgN/A
8:00 AM88 °FPartly sunny.2 mph66%29.92 "HgN/A
7:30 AM86 °FPartly sunny.5 mph75%29.92 "HgN/A
7:00 AM84 °FBroken clouds.5 mph79%29.92 "HgN/A
6:30 AM82 °FBroken clouds.3 mph84%29.92 "HgN/A
6:00 AM82 °FBroken clouds.3 mph84%29.89 "HgN/A
5:00 AM81 °FPartly cloudy.7 mph84%29.89 "HgN/A
4:00 AM86 °FPartly cloudy.10 mph75%29.89 "HgN/A
3:00 AM86 °FPassing clouds.10 mph75%29.89 "HgN/A
2:00 AM86 °FPassing clouds.12 mph75%29.89 "HgN/A
1:00 AM86 °FPassing clouds.12 mph79%29.92 "HgN/A
12:00 AM86 °FPassing clouds.9 mph79%29.95 "HgN/A
11:30 PM
Wed, Jun 29
86 °FPassing clouds.13 mph79%29.95 "HgN/A
11:00 PM86 °FPassing clouds.12 mph79%29.98 "HgN/A
10:30 PM86 °FPassing clouds.12 mph79%29.95 "HgN/A
10:00 PM86 °FPassing clouds.14 mph79%29.95 "HgN/A
9:30 PM88 °FPassing clouds.16 mph75%29.95 "HgN/A
9:00 PM86 °FPassing clouds.15 mph79%29.95 "HgN/A
8:30 PM86 °FPassing clouds.16 mph79%29.92 "HgN/A
8:00 PM86 °FPassing clouds.16 mph79%29.92 "HgN/A
7:30 PM88 °FPassing clouds.16 mph75%29.92 "HgN/A
7:00 PM88 °FPassing clouds.18 mph79%29.89 "HgN/A
6:30 PM88 °FBroken clouds.17 mph75%29.86 "HgN/A
6:00 PM88 °FScattered clouds.16 mph75%29.86 "HgN/A
Weather by CustomWeather, © 2016

See weather overviewHow to use our weather pages